RH
9 9 9 9 9 9 9 9 9 9 9 9 8 7 6 5 4 4 5 5 6 6 7 7 7 6 6 6 6 6 6 6 5 5 6 5 7 9 10 13 15 15 16 16 19 27 33 36 35 33 35 37 39 40 37 43 48 51 61 61 56 56 53 55 56 51 45 41 38 36 34 32 29 27 27 31 31 28 34 43 44 46 51 55 54 44 39 40
10 10 9 9 9 9 9 9 9 9 9 9 9 9 7 6 5 5 4 4 4 4 5 6 6 7 6 6 6 6 6 6 5 4 5 5 6 8 8 9 12 14 15 16 21 28 32 33 33 34 37 38 38 38 38 42 44 47 56 58 55 54 51 52 54 48 44 46 42 37 35 33 30 22 24 33 30 26 32 37 40 45 50 53 51 43 38 38
10 11 10 10 10 9 9 9 10 9 9 9 9 9 9 8 7 6 6 5 4 4 4 4 5 6 6 7 6 6 6 6 7 6 4 5 6 7 7 7 9 11 13 16 22 26 28 31 34 37 39 37 35 37 39 39 42 46 51 56 53 50 49 49 50 45 43 47 42 38 37 34 32 24 29 36 29 30 35 31 34 43 48 50 47 41 36 35
10 10 10 10 10 10 10 10 10 10 10 9 9 9 9 9 9 8 8 6 6 5 4 4 4 4 5 5 6 6 6 6 9 8 6 6 7 7 7 6 7 9 11 15 21 24 27 30 35 38 37 35 34 35 38 38 43 47 48 52 49 48 49 47 48 46 43 46 42 40 38 34 33 29 32 34 29 36 37 28 31 40 45 45 41 37 35 34
10 10 10 10 10 10 10 10 10 10 10 10 9 9 9 9 9 9 9 8 8 7 6 5 4 4 4 4 5 5 6 9 13 11 8 7 6 6 6 6 7 8 9 13 19 23 27 29 32 35 34 34 34 33 35 37 43 45 46 48 46 48 49 46 46 44 42 46 42 40 40 36 33 30 32 33 30 36 37 30 33 40 42 37 35 34 34 34
10 10 10 10 10 10 10 10 10 10 10 10 10 9 9 9 9 9 9 9 9 8 8 7 6 5 4 4 4 4 6 10 14 13 10 8 7 5 5 6 6 7 8 13 18 21 26 28 28 32 33 33 33 33 33 35 38 38 41 44 45 47 45 42 43 38 36 41 43 42 43 39 34 31 31 31 30 36 39 32 32 40 39 31 31 33 33 33
10 10 10 10 9 10 10 10 10 10 10 10 10 9 9 9 9 8 9 9 9 9 8 8 7 7 5 4 4 5 7 8 10 11 10 9 8 6 5 5 5 6 7 13 17 19 25 27 26 29 31 33 34 32 31 34 34 33 36 39 42 46 45 42 42 37 32 38 44 44 45 41 37 35 32 31 30 35 38 31 32 40 38 31 29 31 32 32
8 9 9 9 9 9 10 9 9 10 9 10 9 9 9 9 9 9 9 8 8 8 9 9 8 8 7 5 5 6 7 8 10 11 10 8 7 6 5 4 5 6 6 11 15 16 22 26 26 27 29 32 35 33 30 31 30 29 31 34 39 45 45 41 40 38 31 33 42 43 44 42 40 38 33 31 31 34 35 30 33 37 36 34 29 29 32 32
8 8 8 9 9 9 9 9 9 9 9 9 9 9 9 9 9 8 9 8 8 8 8 8 8 8 7 6 6 6 6 9 13 12 10 8 7 6 6 5 5 5 5 10 13 14 20 24 25 27 28 30 34 34 30 29 29 27 26 27 33 39 42 39 36 39 33 30 38 40 41 40 40 39 34 33 31 33 34 29 32 34 34 34 30 30 31 30
7 7 7 7 8 8 8 8 9 9 9 9 9 9 8 9 9 9 8 8 8 8 8 8 8 8 7 8 8 7 7 10 11 10 9 8 8 7 6 6 6 5 6 9 10 12 17 22 25 26 27 29 30 31 28 28 29 27 26 25 29 33 39 38 33 39 37 30 34 37 38 39 38 35 35 37 30 31 33 29 33 33 32 34 34 35 31 29
7 7 7 7 7 7 7 8 8 8 8 9 9 9 8 8 8 8 8 8 8 8 8 7 7 7 6 9 11 8 7 9 10 9 11 9 8 8 7 8 8 7 7 7 8 10 15 19 23 25 25 26 26 26 24 25 26 27 26 24 28 33 37 37 34 38 36 30 32 34 36 40 36 29 35 38 29 31 33 28 31 31 31 34 36 38 29 28
8 7 7 7 7 7 7 7 7 7 8 8 9 8 8 8 8 8 8 8 8 8 8 8 8 7 7 10 11 8 7 9 9 9 11 10 7 6 6 9 9 7 7 6 7 9 13 16 19 22 23 24 25 25 23 23 22 22 24 24 28 32 34 37 36 36 34 31 32 32 34 39 35 29 36 40 29 31 33 29 29 29 31 32 35 39 28 27
8 8 7 7 7 7 6 6 7 7 7 7 8 8 8 8 8 8 8 7 7 8 8 8 8 7 9 11 8 6 7 8 8 8 10 10 8 6 5 6 7 7 7 6 7 9 12 14 17 20 21 21 22 24 24 24 22 20 22 24 27 30 32 35 36 35 34 33 32 32 35 40 39 32 36 40 30 31 33 29 28 28 32 32 34 36 25 24
9 8 8 8 7 7 6 6 6 6 6 6 7 7 7 8 8 7 8 7 7 7 7 8 8 9 12 11 6 6 7 7 8 8 9 10 9 7 6 5 6 6 7 6 7 10 12 13 16 18 20 20 20 22 23 23 22 22 22 22 25 29 31 33 34 35 35 35 31 31 35 40 42 36 35 39 31 30 33 29 28 29 31 31 33 32 23 22
11 9 8 8 8 7 7 7 7 6 6 6 6 6 7 7 7 7 8 7 7 7 7 8 8 11 14 11 6 7 7 7 8 7 8 9 8 7 7 7 6 6 6 7 6 9 11 12 14 16 17 20 20 21 21 21 21 22 23 23 24 27 30 33 34 35 37 37 34 31 33 39 44 41 38 38 31 29 33 30 28 28 29 30 32 31 23 21
14 12 10 9 8 8 8 7 7 7 6 6 6 6 6 6 7 7 7 7 7 7 7 9 12 15 15 11 8 8 8 8 7 7 7 8 7 6 7 9 9 8 7 8 7 7 9 11 12 14 16 18 20 20 19 19 20 22 23 24 26 27 29 33 35 36 37 38 35 32 33 38 45 45 42 39 32 30 34 33 29 27 28 29 31 31 26 22
17 15 13 11 10 9 8 8 8 7 7 7 7 6 6 6 7 6 7 7 6 7 7 10 16 17 13 10 8 8 8 9 9 8 8 6 6 8 9 11 11 10 9 9 9 7 8 9 10 12 14 15 17 19 21 19 19 21 22 23 28 29 28 32 37 38 36 34 34 33 32 36 43 46 44 43 36 31 35 35 32 29 29 29 31 33 30 25
18 18 16 15 13 11 10 9 8 8 8 7 7 7 7 7 7 7 7 7 8 10 10 12 14 14 12 11 11 10 9 10 11 10 8 6 6 9 12 12 11 11 10 10 9 8 8 8 8 9 11 13 15 17 19 19 18 20 22 23 26 29 30 32 37 40 36 32 33 34 32 34 43 48 47 47 41 34 35 36 34 32 31 31 31 32 31 27
21 19 18 18 16 14 13 11 10 9 8 8 8 7 8 10 11 12 13 14 14 14 12 15 16 11 10 12 13 13 11 11 12 11 9 9 8 9 11 12 12 11 11 10 8 7 8 8 8 9 10 12 14 14 15 17 19 21 24 25 26 29 30 33 36 38 38 36 34 35 34 33 39 46 48 50 45 38 37 37 36 36 34 32 31 31 32 29
23 21 20 19 18 17 15 13 12 10 9 9 8 9 11 11 12 14 15 15 16 14 12 15 17 12 9 10 12 12 12 11 11 11 11 11 10 9 10 12 12 11 10 9 8 7 8 8 8 8 9 10 11 13 13 16 20 23 25 26 27 28 29 31 35 37 38 38 36 37 36 35 38 43 46 50 48 41 38 38 39 39 36 33 33 33 33 32
25 24 22 21 21 19 18 16 14 12 12 10 10 12 13 11 10 11 11 10 10 11 10 11 13 11 9 10 11 11 10 11 11 11 11 11 11 10 10 11 11 11 10 8 8 8 7 7 7 6 7 8 10 11 12 15 18 22 25 26 26 26 28 30 34 37 37 38 40 40 38 37 40 43 46 48 48 44 40 40 41 42 40 36 35 35 35 33
26 26 24 22 22 21 20 18 16 15 14 12 13 14 13 13 13 12 11 10 8 8 8 7 8 8 6 7 9 10 10 9 10 11 10 10 10 10 10 11 10 10 10 8 8 10 8 6 6 6 5 6 8 10 11 13 16 20 23 25 25 25 28 31 34 36 36 37 40 41 40 38 38 41 47 49 49 45 42 42 42 43 44 40 37 36 36 34
27 26 26 24 22 23 21 20 19 18 16 15 16 15 14 14 14 14 13 11 10 8 8 7 7 6 6 5 6 8 9 8 8 10 10 9 9 9 10 10 10 10 11 9 8 10 9 6 5 5 5 5 7 9 10 11 14 17 20 23 25 24 27 31 32 34 35 36 37 39 40 39 38 39 44 47 48 48 46 44 43 42 43 43 40 38 36 35
29 27 27 25 23 23 22 21 23 22 18 17 17 16 16 16 15 15 14 11 10 9 8 8 7 6 6 5 5 6 8 8 7 8 9 9 8 9 10 10 10 10 11 11 9 9 9 7 6 5 5 6 7 8 8 9 12 15 17 21 24 24 26 28 31 33 34 36 36 39 41 40 39 40 41 41 40 46 49 46 44 43 42 41 40 38 35 35
30 28 28 27 25 24 23 23 26 23 18 18 19 18 18 17 16 16 14 13 12 10 9 9 8 7 6 6 6 6 7 7 7 6 7 8 8 8 9 10 11 11 11 13 13 11 9 8 8 6 6 6 6 7 8 9 11 12 13 18 22 25 25 25 29 32 34 36 37 39 42 40 39 39 42 42 38 42 47 45 44 45 44 41 37 36 36 36
31 30 29 28 26 25 24 25 25 21 18 19 20 19 18 17 16 15 15 15 14 11 10 10 9 8 7 6 6 7 7 7 6 6 6 7 8 8 9 10 11 11 12 13 15 13 10 9 8 8 7 6 6 6 7 8 9 11 12 14 19 23 24 24 28 31 32 35 36 38 41 41 40 39 40 43 43 44 48 49 47 46 45 43 37 35 37 38
32 32 31 30 28 26 25 25 24 21 20 22 21 20 18 17 16 15 18 19 15 12 11 11 10 9 8 8 7 8 8 8 7 6 6 7 7 8 9 9 9 10 12 14 14 13 12 10 8 8 7 7 6 6 6 8 8 9 11 14 17 20 22 23 26 30 30 32 35 37 40 42 42 40 40 43 44 45 49 52 50 47 45 42 38 35 34 35
33 32 31 31 30 27 26 27 25 23 23 23 23 21 19 18 17 17 22 22 16 12 13 12 12 11 10 9 9 8 8 9 9 7 6 6 8 8 8 9 9 10 11 13 14 13 12 12 10 8 8 7 6 5 6 7 7 8 10 15 18 19 21 22 24 25 26 31 35 36 39 42 42 41 40 43 45 44 44 47 48 49 48 43 40 39 36 35
32 32 31 32 31 29 28 28 27 26 26 25 24 23 20 19 18 19 24 23 16 13 14 14 13 13 11 11 11 9 8 9 10 11 9 7 7 8 8 8 9 12 13 13 13 13 12 12 11 9 8 8 7 6 5 6 7 7 9 13 18 19 20 22 24 23 23 28 32 32 34 40 43 42 41 41 44 44 43 44 46 49 50 46 42 42 41 38
33 33 32 31 31 30 29 28 28 29 29 28 27 24 21 20 20 23 25 21 15 13 15 15 15 14 13 14 13 11 10 9 11 15 13 9 8 9 9 8 9 12 15 14 13 13 11 12 12 11 9 9 7 6 5 5 6 7 9 12 16 19 19 20 22 23 25 26 26 27 30 37 41 42 41 40 39 41 41 43 46 47 48 47 43 41 41 40
33 32 32 32 31 31 31 30 28 29 30 30 27 24 22 21 22 26 24 18 15 15 15 16 15 14 14 15 15 13 11 10 12 15 13 10 10 9 10 10 9 11 14 15 14 13 12 11 12 12 11 10 7 6 6 5 5 6 9 11 14 18 20 19 20 22 25 26 24 25 28 32 37 38 38 38 36 36 38 39 40 43 44 46 44 41 40 40
32 32 32 32 31 31 33 32 29 29 29 28 27 24 24 24 23 23 21 17 16 15 15 17 16 15 15 16 16 15 13 11 13 16 13 10 10 10 10 10 10 10 12 13 14 14 13 11 12 13 12 10 8 7 7 6 5 6 7 11 14 18 22 23 23 23 24 25 24 24 26 28 31 33 35 37 36 36 36 36 36 39 41 45 46 42 40 40
31 31 32 32 32 32 33 33 32 30 29 30 29 26 25 27 23 20 19 19 17 16 16 17 16 16 17 16 16 16 14 13 14 16 14 12 11 11 10 9 10 11 10 11 13 14 14 12 11 12 13 11 8 7 7 6 6 6 7 9 12 15 20 24 24 23 23 23 23 23 25 27 29 31 32 34 36 37 37 36 35 36 40 44 45 43 41 39
29 30 31 31 31 32 33 34 34 33 35 35 31 27 28 27 22 19 20 19 18 17 17 17 17 17 17 17 17 17 17 16 16 17 17 15 13 12 11 9 10 11 10 10 12 13 14 13 12 11 12 12 9 7 7 7 7 7 7 7 9 10 14 19 22 22 22 22 23 24 25 26 28 29 31 32 35 37 38 39 39 38 41 44 45 43 40 38
25 27 27 28 30 32 33 36 37 38 40 38 32 29 29 24 21 21 21 20 19 18 18 17 18 18 18 18 17 17 19 19 18 18 18 17 15 13 13 10 8 10 11 12 12 12 13 13 12 12 11 11 10 9 8 7 7 7 6 6 8 8 9 14 19 22 23 22 22 24 24 24 25 28 30 32 35 37 37 39 41 41 41 42 42 42 41 39
20 22 23 26 30 32 33 35 39 41 40 38 35 32 26 21 21 22 21 21 21 19 19 19 18 18 19 19 18 17 18 19 19 19 18 18 17 14 14 12 9 9 11 13 12 12 12 13 12 13 13 11 11 10 9 8 7 7 7 6 6 7 8 12 17 21 24 24 23 22 21 22 24 26 28 30 34 37 38 39 40 40 40 41 40 39 38 38
16 18 19 21 26 30 30 32 37 39 38 38 37 32 25 23 23 22 22 22 20 19 19 20 19 19 20 20 20 19 18 18 19 19 18 18 18 16 14 14 12 9 10 11 12 11 12 14 15 14 13 12 11 11 11 9 7 7 8 6 6 7 8 11 16 21 25 26 24 22 21 22 24 24 26 28 30 34 37 38 39 39 38 39 38 36 34 37
19 21 19 20 26 28 28 31 35 37 37 38 37 32 28 27 25 23 23 22 21 20 19 18 19 19 20 21 21 21 21 19 18 19 18 18 18 18 16 14 13 12 10 10 11 11 11 14 17 18 17 15 12 11 11 10 7 6 6 7 8 8 9 11 16 21 25 26 24 23 24 24 23 22 23 26 28 32 34 35 38 39 36 35 36 35 35 35
24 24 20 25 34 35 33 32 32 33 38 41 38 33 31 30 28 26 26 25 23 21 19 18 18 20 20 20 21 23 23 21 19 18 18 17 16 16 17 15 14 13 13 11 10 10 10 12 15 20 23 21 15 11 11 11 9 6 6 7 9 10 10 10 14 19 24 25 23 23 24 25 23 21 21 23 27 31 33 34 37 36 32 32 34 37 39 36
25 22 17 21 32 39 38 33 28 31 39 42 38 34 32 32 31 29 28 27 26 24 22 18 18 21 21 21 22 24 24 23 22 20 18 17 16 16 16 16 15 14 14 13 11 10 12 12 13 18 24 23 16 12 11 10 10 8 6 6 8 11 12 11 13 15 19 21 22 24 24 23 22 22 21 22 24 28 31 33 35 34 30 30 32 36 39 34
25 22 18 20 30 39 42 37 31 31 33 34 34 35 35 34 34 33 31 29 28 27 25 22 20 20 21 23 23 23 24 23 23 23 22 19 18 18 17 16 16 15 15 14 13 11 12 14 14 16 21 22 18 14 13 11 10 9 7 6 7 10 12 12 13 13 15 17 19 21 24 22 21 22 22 23 23 26 29 31 33 32 30 28 28 33 36 32
26 21 20 26 35 41 42 38 34 32 31 29 29 32 34 35 35 35 34 33 30 29 27 25 23 21 21 24 26 25 24 22 21 22 23 23 21 20 19 18 17 17 17 16 15 12 11 14 15 14 16 20 21 19 16 13 11 10 9 6 5 7 9 11 12 13 14 15 15 17 21 22 21 22 23 22 23 25 28 31 33 33 30 26 25 28 31 30
27 22 19 22 29 34 36 33 30 30 30 27 27 30 32 33 34 34 35 36 34 32 31 28 25 23 23 24 27 27 25 23 21 19 20 23 24 23 20 19 19 20 20 20 19 16 13 13 17 18 15 17 21 22 19 15 12 10 9 7 5 5 6 9 12 13 14 14 14 16 20 19 18 22 24 23 24 26 28 30 32 33 32 28 27 28 29 30
33 27 21 18 21 28 32 32 28 25 23 22 23 27 29 31 33 33 34 35 36 35 34 32 29 27 26 26 27 27 25 24 23 19 18 20 23 24 22 20 21 22 22 23 24 21 16 14 17 21 18 17 20 22 21 18 14 11 9 8 7 7 5 6 10 14 16 15 14 17 19 17 15 19 23 24 26 26 26 28 29 31 32 31 29 30 31 32
40 32 25 21 25 30 30 28 25 23 24 24 25 28 32 35 36 35 35 34 35 37 38 37 35 32 31 29 28 27 26 25 24 22 21 20 19 21 22 21 22 25 25 26 28 26 21 17 17 19 19 18 18 20 21 20 15 12 10 10 10 10 9 7 7 11 15 17 17 17 17 17 18 20 20 22 26 27 26 27 29 29 28 29 30 30 30 30
48 39 29 27 33 37 37 36 32 31 31 34 38 39 40 42 41 39 39 37 37 40 43 42 40 38 36 33 30 30 28 26 25 23 23 23 21 21 23 21 20 26 30 30 30 28 25 21 19 18 17 17 18 18 19 21 19 14 11 10 10 11 11 10 8 9 11 15 18 18 17 19 22 23 21 19 23 28 29 28 29 30 28 26 29 32 31 31
56 47 37 39 44 41 41 45 47 49 49 49 53 52 47 46 45 42 42 43 46 49 49 46 44 42 39 36 33 32 30 29 26 24 23 24 25 26 26 22 20 27 33 30 28 28 27 27 26 23 18 17 19 20 20 22 22 19 16 13 11 11 12 12 10 9 9 11 14 18 20 21 22 23 24 22 21 25 28 27 26 28 29 27 30 34 35 34
60 54 48 55 58 50 47 48 51 59 65 65 66 63 55 49 46 45 46 49 56 59 57 53 50 47 44 41 38 34 32 31 29 27 26 25 27 28 27 24 23 27 31 29 27 27 27 27 29 28 23 18 17 20 22 24 24 22 21 18 15 12 11 12 12 11 11 11 11 14 19 21 20 21 24 24 23 24 26 26 24 24 26 27 31 35 37 37
62 59 56 61 64 59 55 52 52 57 62 66 70 69 64 58 52 51 57 62 64 65 64 63 62 61 57 52 48 44 39 34 31 29 27 25 27 29 28 26 24 24 29 30 28 27 26 25 26 27 28 25 19 17 20 26 27 25 22 21 19 18 15 13 12 12 12 13 12 11 15 18 18 20 22 22 24 26 27 28 28 27 26 26 30 33 33 35
68 67 67 69 67 63 62 59 57 57 54 57 65 67 67 67 62 60 65 71 72 69 70 70 68 67 64 58 57 58 54 48 42 38 34 30 29 29 28 28 26 24 29 32 29 26 25 25 25 25 27 27 25 22 19 21 26 28 26 24 22 21 20 18 16 14 12 13 13 12 14 15 15 17 18 18 20 24 27 29 29 30 30 28 28 30 29 30
73 75 83 85 72 65 69 69 66 63 57 55 61 65 64 66 65 63 66 71 74 73 75 74 70 68 66 62 62 65 64 59 52 45 41 38 34 31 29 28 27 25 28 31 29 25 24 24 24 27 28 25 26 30 27 22 24 26 25 25 25 23 22 20 19 19 15 12 13 15 16 16 15 16 17 18 18 20 23 26 27 29 31 30 28 28 27 28
75 74 83 88 73 61 67 73 72 69 61 54 58 64 65 65 64 65 69 70 71 74 76 75 73 73 70 66 66 66 64 61 52 44 43 42 38 36 33 30 28 26 26 28 27 24 24 23 24 27 29 25 24 31 33 31 30 26 20 20 23 25 24 21 21 24 22 17 16 16 16 17 17 18 17 19 21 21 21 21 22 27 31 31 30 28 26 27